Powrót do katalogu

PAGEOS 1 DEB

AktywnyPO
NORAD 2511·DEBRIS·🇺🇸 United States

Wystrzelony Jun 24, 1966 z Vandenberg Space Force Base

Loading…

Następne Przeloty (najbliższe 24 godziny)

TLE

ŚwieżeSource: Space-Track

Epoka: Sep 13, 2026, 07:08 UTC

1 02511U 66056D   26256.29759662 -.00000020  00000-0 -21835-1 0  9993
2 02511  87.0103 217.1005 0016588 131.0600 229.1642  7.93368910359576

Śledź PAGEOS 1 DEB w czasie rzeczywistym z AllMySat

Download on the App Store